STARLINK-1211 (45208 NORAD) Tracking and Keplerian Element Data

This shows tracking and keplerian element data for the satellite.

Feedback or suggestion? Click here.




ElementValue
Catalog45208
NameSTARLINK-1211
Epoch Orbit751
Epoch Day94.25001157
Epoch Year2020
RAAN42.9211
Inclination52.9985
Eccentricity0.000729
Argument of Perigee324.791
Mean Anonmoly133.3638
Mean Motion15.62766991
Decay Rate0.00034033
L11 45208U 20012AG 20094.25001157 .00034033 00000-0 37535-3 0 9999
L22 45208 52.9985 42.9211 0007290 324.7910 133.3638 15.62766991 7514

Live tracking and technical data element details for STARLINK-1211 (NORAD 45208). STARLINK-1211 can be tracked NOW for your location showing map with azimuth and elevation plus other details from your city location.

Track the satellite on the map from your city or location and see movement details for azimuth, elevation, latitude, longitude, range, height, and movement on the map or in text.







IsCatalogInMostPopularTable: catalog: 45208, numindb: 7
Update: records affected: 1



GetName: 45208 STARLINK-1211

Hit Count: updated at: Tue, 07 Apr 2020 15:55:11 GMT